Weather reports worldwide

Advertisment
Toledo, Spain (8272): temperature & dewpoint: 10.07.2018 18:00:00 - 16.07.2018 18:00:00 (CEST)Toledo, Spain (8272): wind speed: 10.07.2018 18:00:00 - 16.07.2018 18:00:00 (CEST)Toledo, Spain (8272): wind direction: 10.07.2018 18:00:00 - 16.07.2018 18:00:00 (CEST)Toledo, Spain (8272): reduced air pressure: 10.07.2018 18:00:00 - 16.07.2018 18:00:00 (CEST)Toledo, Spain (8272): visibility: 10.07.2018 18:00:00 - 16.07.2018 18:00:00 (CEST)Toledo, Spain (8272): precipitation: 10.07.2018 18:00:00 - 16.07.2018 18:00:00 (CEST)
Date & Time tt [°C] td [°C] ff [km/h] ff [kn] dd ppp [hPa] vv [km] rr [mm]
16.07.2018 18:00:00 31,7 8,0 11 6 W 1014,1 16 0,0
16.07.2018 17:00:00 30,9 7,4 15 8 WNW 1014,7 16 -
16.07.2018 16:00:00 30,4 8,2 11 6 NW 1015,0 16 0,0
16.07.2018 15:00:00 29,7 7,6 16 9 WNW 1015,9 16 0,0
16.07.2018 14:00:00 28,3 8,0 16 9 WNW 1016,5 15 -
16.07.2018 13:00:00 27,1 9,0 13 7 WNW 1017,0 16 0,0
16.07.2018 12:00:00 25,3 10,0 11 6 NNW 1017,5 15 0,0
16.07.2018 11:00:00 23,0 11,4 18 10 WNW 1017,6 14 -
16.07.2018 10:00:00 20,6 12,0 13 7 W 1018,0 14 0,0
16.07.2018 09:00:00 18,8 11,8 13 7 W 1018,3 13 0,0
16.07.2018 08:00:00 16,7 11,2 5 3 NW 1018,6 3,6 -
16.07.2018 07:00:00 16,6 11,1 5 3 WSW 1018,1 13 0,0
16.07.2018 06:00:00 17,4 11,0 5 3 W 1017,4 14 0,0
16.07.2018 05:00:00 18,0 11,1 15 8 W 1017,2 12 -
16.07.2018 04:00:00 18,4 10,7 15 8 WNW 1017,4 13 0,0
16.07.2018 03:00:00 19,1 10,1 18 10 W 1017,1 13 0,0
16.07.2018 02:00:00 19,9 9,5 21 11 W 1017,2 14 -
16.07.2018 01:00:00 21,1 7,7 22 12 WNW 1016,7 14 0,0
16.07.2018 00:00:00 22,0 6,6 11 6 W 1016,1 14 0,0
15.07.2018 23:00:00 23,0 6,7 13 7 WNW 1015,4 14 -
15.07.2018 22:00:00 24,2 6,9 16 9 WNW 1014,5 14 0,0
15.07.2018 21:00:00 26,1 7,2 22 12 W 1013,5 14 0,0
15.07.2018 20:00:00 27,2 8,6 26 14 W 1013,2 14 -
15.07.2018 19:00:00 28,6 9,3 24 13 W 1012,8 14 0,0
15.07.2018 18:00:00 27,9 9,2 24 13 W 1013,2 14 0,0
15.07.2018 17:00:00 29,5 10,1 21 11 WNW 1012,9 14 -
15.07.2018 16:00:00 29,1 10,2 21 11 WNW 1013,1 14 0,0
15.07.2018 15:00:00 28,6 9,8 13 7 WNW 1013,8 14 0,0
15.07.2018 14:00:00 28,0 9,3 11 6 W 1014,4 14 -
15.07.2018 13:00:00 27,1 10,3 16 9 W 1015,1 14 0,0
15.07.2018 12:00:00 25,5 11,3 18 10 WNW 1015,7 13 0,0
15.07.2018 11:00:00 23,4 11,4 18 10 W 1016,2 13 -
15.07.2018 10:00:00 21,5 11,5 21 11 W 1016,8 12 0,0
15.07.2018 09:00:00 20,5 10,6 18 10 W 1016,9 12 0,0
15.07.2018 08:00:00 18,5 9,6 9 5 W 1017,1 12 -
15.07.2018 07:00:00 18,6 9,1 5 3 W 1016,6 12 0,0
15.07.2018 06:00:00 19,4 9,0 8 4 WNW 1016,0 12 0,0
15.07.2018 05:00:00 20,2 6,5 4 2 W 1015,9 13 -
15.07.2018 04:00:00 21,3 5,2 5 3 W 1015,7 13 0,0
15.07.2018 03:00:00 21,8 2,5 2 1 S 1015,7 13 0,0
15.07.2018 02:00:00 22,9 1,2 4 2 SW 1016,1 13 -
15.07.2018 01:00:00 23,8 1,4 2 1 SW 1015,8 13 0,0
15.07.2018 00:00:00 25,0 1,1 5 3 WSW 1015,1 14 0,0
14.07.2018 23:00:00 26,5 1,7 4 2 W 1014,2 14 -
14.07.2018 22:00:00 28,9 2,2 9 5 SW 1012,8 14 0,0
14.07.2018 21:00:00 31,7 2,8 13 7 SW 1011,8 15 0,0
14.07.2018 20:00:00 33,0 0,9 21 11 WSW 1011,6 15 -
14.07.2018 19:00:00 33,7 1,5 24 13 W 1011,4 15 0,0
14.07.2018 18:00:00 34,2 2,9 18 10 SSW 1011,6 15 0,0
14.07.2018 17:00:00 34,7 3,3 16 9 WSW 1012,0 15 -
14.07.2018 16:00:00 33,7 6,1 16 9 WSW 1012,6 15 0,0
14.07.2018 15:00:00 33,0 4,7 13 7 SSW 1013,2 15 0,0
14.07.2018 14:00:00 31,8 3,7 18 10 S 1014,0 15 -
14.07.2018 13:00:00 30,7 6,5 16 9 WSW 1014,4 14 0,0
14.07.2018 12:00:00 29,4 10,0 8 4 SSE 1014,8 13 0,0
14.07.2018 11:00:00 27,3 11,7 11 6 W 1015,3 13 -
14.07.2018 10:00:00 25,1 13,0 8 4 W 1015,9 12 0,0
14.07.2018 09:00:00 22,7 12,9 4 2 W 1016,1 11 0,0
14.07.2018 08:00:00 20,7 12,4 4 2 W 1016,1 11 -
14.07.2018 07:00:00 20,6 12,0 2 1 W 1015,6 11 0,0
14.07.2018 06:00:00 21,2 11,5 4 2 W 1015,1 12 0,0
14.07.2018 05:00:00 21,9 9,8 5 3 WSW 1015,0 12 -
14.07.2018 04:00:00 23,0 10,1 8 4 WSW 1014,7 12 0,0
14.07.2018 03:00:00 24,0 9,6 9 5 W 1014,2 13 0,0
14.07.2018 02:00:00 24,8 7,4 11 6 W 1014,2 13 -
14.07.2018 01:00:00 25,9 7,9 11 6 WNW 1013,8 13 0,0
14.07.2018 00:00:00 26,7 6,7 8 4 WSW 1013,3 13 0,0
13.07.2018 23:00:00 28,0 6,1 11 6 WNW 1012,3 14 -
13.07.2018 22:00:00 30,2 6,1 9 5 W 1010,9 13 0,0
13.07.2018 21:00:00 33,3 7,3 9 5 SW 1009,5 14 0,0
13.07.2018 20:00:00 33,9 7,8 11 6 WSW 1009,3 14 -
13.07.2018 19:00:00 34,5 7,5 13 7 SW 1009,3 14 0,0
13.07.2018 18:00:00 35,5 7,5 13 7 SSW 1009,4 15 0,0
13.07.2018 17:00:00 35,7 8,5 21 11 W 1009,6 15 -
13.07.2018 16:00:00 35,3 8,9 11 6 WSW 1010,0 14 0,0
13.07.2018 15:00:00 34,0 10,6 8 4 SSW 1010,5 14 0,0
13.07.2018 14:00:00 32,7 10,7 11 6 ESE 1011,5 13 -
13.07.2018 13:00:00 30,9 11,8 5 3 SSW 1012,3 13 0,0
13.07.2018 12:00:00 29,1 12,5 4 2 E 1012,9 13 0,0
13.07.2018 11:00:00 26,2 12,3 5 3 NNW 1013,4 12 -
13.07.2018 10:00:00 24,5 12,1 4 2 WSW 1013,7 13 0,0
13.07.2018 09:00:00 22,2 14,3 4 2 SW 1013,8 11 0,0
13.07.2018 08:00:00 20,3 12,3 4 2 S 1014,1 12 -
13.07.2018 07:00:00 20,4 12,6 4 2 SSW 1013,5 12 0,0
13.07.2018 06:00:00 20,9 13,3 13 7 E 1013,1 11 0,0
13.07.2018 05:00:00 21,1 8,7 2 1 ESE 1012,8 12 -
13.07.2018 04:00:00 22,4 8,1 5 3 NE 1012,4 12 0,0
13.07.2018 03:00:00 23,1 8,4 9 5 E 1012,5 12 0,0
13.07.2018 02:00:00 24,8 7,9 2 1 WNW 1011,9 12 -
13.07.2018 01:00:00 25,2 8,2 2 1 SSW 1011,7 12 0,0
13.07.2018 00:00:00 26,7 7,2 8 4 N 1011,2 12 0,0
12.07.2018 23:00:00 28,3 10,0 4 2 NW 1010,5 12 -
12.07.2018 22:00:00 30,0 10,5 8 4 WNW 1009,4 12 0,0
12.07.2018 21:00:00 33,0 9,7 2 1 N 1008,6 13 0,0
12.07.2018 20:00:00 32,1 10,2 8 4 WNW 1008,7 13 -
12.07.2018 19:00:00 32,9 9,7 13 7 W 1008,6 13 0,0
12.07.2018 18:00:00 34,5 9,0 15 8 WNW 1008,5 14 0,0
12.07.2018 17:00:00 34,5 9,7 11 6 SW 1009,0 14 -
12.07.2018 16:00:00 34,1 8,7 8 4 E 1009,6 14 0,0
12.07.2018 15:00:00 32,1 8,4 9 5 WNW 1010,5 14 0,0
12.07.2018 14:00:00 32,0 10,1 9 5 WSW 1011,1 13 -
12.07.2018 13:00:00 30,7 10,6 8 4 SSE 1011,7 13 0,0
12.07.2018 12:00:00 29,4 11,4 8 4 E 1012,2 14 0,0
12.07.2018 11:00:00 27,4 11,8 5 3 NNE 1012,5 13 -
12.07.2018 10:00:00 25,1 12,0 4 2 S 1013,0 12 0,0
12.07.2018 09:00:00 22,2 12,2 4 2 W 1013,3 12 0,0
12.07.2018 08:00:00 20,1 11,6 2 1 S 1013,3 12 -
12.07.2018 07:00:00 19,4 11,2 2 1 N 1013,1 11 0,0
12.07.2018 06:00:00 19,7 12,5 4 2 SSW 1012,9 11 0,0
12.07.2018 05:00:00 20,5 11,9 2 1 NNW 1012,5 11 -
12.07.2018 04:00:00 21,2 13,4 8 4 NW 1012,2 11 0,0
12.07.2018 03:00:00 22,6 14,4 8 4 W 1011,9 10 0,0
12.07.2018 02:00:00 23,7 14,4 11 6 W 1011,8 11 -
12.07.2018 01:00:00 24,3 13,8 13 7 W 1011,6 11 0,0
12.07.2018 00:00:00 25,1 12,7 9 5 WNW 1011,5 11 0,0
11.07.2018 23:00:00 26,4 11,7 15 8 W 1010,9 11 -
11.07.2018 22:00:00 28,0 10,7 15 8 WNW 1009,5 12 0,0
11.07.2018 21:00:00 29,8 12,2 24 13 WNW 1008,6 12 0,0
11.07.2018 20:00:00 32,2 7,1 21 11 W 1008,0 13 -
11.07.2018 19:00:00 33,6 2,4 16 9 WSW 1007,7 14 0,0
11.07.2018 18:00:00 33,7 -0,9 18 10 W 1008,2 14 0,0
11.07.2018 17:00:00 33,7 1,5 18 10 WSW 1008,4 14 -
11.07.2018 16:00:00 33,2 8,6 24 13 WSW 1008,8 13 0,0
11.07.2018 15:00:00 32,6 9,4 21 11 W 1009,6 13 0,0
11.07.2018 14:00:00 31,9 9,4 28 15 W 1010,2 13 -
11.07.2018 13:00:00 31,8 5,3 22 12 W 1010,6 13 0,0
11.07.2018 12:00:00 30,8 10,7 15 8 WNW 1010,8 12 0,0
11.07.2018 11:00:00 28,1 14,0 8 4 WNW 1011,8 11 -
11.07.2018 10:00:00 25,5 14,3 5 3 W 1012,7 11 0,0
11.07.2018 09:00:00 23,8 13,1 4 2 SSW 1012,9 11 0,0
11.07.2018 08:00:00 22,4 11,5 5 3 SW 1013,0 12 -
11.07.2018 07:00:00 21,1 8,7 4 2 WNW 1014,0 12 0,0
11.07.2018 06:00:00 21,7 7,5 4 2 WNW 1013,6 12 0,0
11.07.2018 05:00:00 22,9 7,8 2 1 E 1013,1 12 -
11.07.2018 04:00:00 23,5 3,9 2 1 S 1013,4 13 0,0
11.07.2018 03:00:00 23,7 3,0 4 2 SSW 1013,7 13 0,0
11.07.2018 02:00:00 24,9 3,5 8 4 WNW 1013,5 13 -
11.07.2018 01:00:00 26,7 3,2 4 2 WNW 1012,8 13 0,0
11.07.2018 00:00:00 27,9 2,9 5 3 W 1012,6 13 0,0
10.07.2018 23:00:00 29,3 4,0 13 7 WNW 1012,1 13 -
10.07.2018 22:00:00 31,4 5,0 16 9 WNW 1011,1 13 0,0
10.07.2018 21:00:00 34,0 5,5 18 10 WNW 1010,2 14 0,0
10.07.2018 20:00:00 35,6 7,6 18 10 WNW 1009,7 14 -
10.07.2018 19:00:00 36,4 7,4 15 8 W 1009,6 14 0,0
10.07.2018 18:00:00 36,6 7,6 13 7 W 1010,0 14 0,0

tt = temperature
td = dewpoint
ff = wind speed
dd = wind direction
ppp = reduced air pressure
vv = visibility
rr = precipitation

Next stations